FW2816 Weather Reports


Display with metric or nautical units.
time (UTC)temp
F
wind
direction
speed
MPH
gust
MPH
rain 1hr
in
rain 24hr
in
rain mn
in
humidity
%
barometer
mb
20260508225515 50 90 0.0 0.0 0.00 0.00 0.00 52 1010.1
20260508225001 51 315 0.0 0.0 0.00 0.00 0.00 50 1010.1
20260508224451 51 315 0.0 0.0 0.00 0.00 0.00 46 1010.1
20260508223941 52 315 0.0 0.0 0.00 0.00 0.00 43 1010.3
20260508223431 52 0 0.0 2.0 0.00 0.00 0.00 42 1010.3
20260508222924 53 0 0.0 3.0 0.00 0.00 0.00 43 1010.3
20260508222410 53 338 0.0 3.0 0.00 0.00 0.00 42 1010.3
20260508221900 53 315 0.0 2.0 0.00 0.00 0.00 41 1010.3
20260508221851 53 225 0.0 2.0 0.00 0.00 0.00 41 1010.1
20260508220841 54 0 1.0 2.0 0.00 0.00 0.00 40 1010.2
20260508220835 54 0 0.0 3.0 0.00 0.00 0.00 40 1010.0
20260508220321 54 0 2.0 4.0 0.00 0.00 0.00 40 1010.1
20260508215309 54 270 0.0 4.0 0.00 0.00 0.00 39 1010.2
20260508214759 54 90 0.0 2.0 0.00 0.00 0.00 38 1010.1
20260508214249 55 0 0.0 3.0 0.00 0.00 0.00 38 1010.0
20260508213742 55 225 0.0 3.0 0.00 0.00 0.00 37 1010.1
20260508213229 56 225 0.0 2.0 0.00 0.00 0.00 37 1010.0
20260508212719 56 270 0.0 2.0 0.00 0.00 0.00 36 1010.0
20260508212208 57 315 0.0 2.0 0.00 0.00 0.00 34 1010.0
20260508211659 58 45 0.0 4.0 0.00 0.00 0.00 32 1009.9
20260508211151 60 293 0.0 5.0 0.00 0.00 0.00 30 1009.9
20260508210638 61 0 0.0 5.0 0.00 0.00 0.00 27 1010.0
20260508210128 63 315 2.0 4.0 0.00 0.00 0.00 25 1010.0
20260508205618 64 225 1.0 4.0 0.00 0.00 0.00 24 1009.8
20260508205609 64 225 0.0 5.0 0.00 0.00 0.00 24 1009.8
20260508204601 64 225 0.0 9.0 0.00 0.00 0.00 23 1009.8
20260508204047 64 225 4.0 10.0 0.00 0.00 0.00 21 1009.9
20260508203537 64 180 4.0 11.0 0.00 0.00 0.00 23 1009.8
20260508203027 65 270 4.0 11.0 0.00 0.00 0.00 23 1009.9
20260508203017 65 0 2.0 8.0 0.00 0.00 0.00 23 1009.8
20260508202010 65 135 4.0 13.0 0.00 0.00 0.00 22 1009.6
20260508201457 65 225 4.0 13.0 0.00 0.00 0.00 22 1009.8
20260508200947 65 225 3.0 12.0 0.00 0.00 0.00 22 1009.7
20260508200436 66 225 4.0 8.0 0.00 0.00 0.00 22 1009.7
20260508195929 66 270 4.0 11.0 0.00 0.00 0.00 23 1009.6
20260508195419 65 135 4.0 11.0 0.00 0.00 0.00 22 1009.6
20260508195406 66 270 6.0 11.0 0.00 0.00 0.00 22 1009.6
20260508194356 65 315 6.0 16.0 0.00 0.00 0.00 23 1009.7
20260508193845 64 225 11.0 16.0 0.00 0.00 0.00 23 1009.5
20260508193836 65 315 4.0 15.0 0.00 0.00 0.00 22 1009.6
20260508192828 65 225 4.0 11.0 0.00 0.00 0.00 22 1009.6
20260508192315 66 293 4.0 11.0 0.00 0.00 0.00 23 1009.7
20260508192249 65 225 4.0 17.0 0.00 0.00 0.00 22 1010.0
20260508191858 65 180 3.0 10.0 0.00 0.00 0.00 22 1009.9
20260508191352 65 315 4.0 17.0 0.00 0.00 0.00 22 1009.9
20260508190740 65 225 5.0 10.0 0.00 0.00 0.00 22 1009.9
20260508185724 65 270 2.0 12.0 0.00 0.00 0.00 22 1010.2
20260508185214 65 158 8.0 14.0 0.00 0.00 0.00 22 1010.3
20260508184704 65 225 7.0 17.0 0.00 0.00 0.00 22 1010.3
20260508184154 64 315 8.0 17.0 0.00 0.00 0.00 21 1010.2
20260508183648 64 315 7.0 17.0 0.00 0.00 0.00 18 1010.3
20260508183634 64 270 4.0 15.0 0.00 0.00 0.00 21 1010.6
20260508183124 64 180 8.0 15.0 0.00 0.00 0.00 18 1010.6
20260508182614 64 225 8.0 14.0 0.00 0.00 0.00 18 1010.6
20260508181603 64 90 7.0 16.0 0.00 0.00 0.00 18 1010.6
20260508181057 64 225 6.0 16.0 0.00 0.00 0.00 18 1010.6
20260508180543 64 293 11.0 14.0 0.00 0.00 0.00 19 1010.6
20260508180534 64 225 4.0 11.0 0.00 0.00 0.00 19 1010.7
20260508180023 64 225 4.0 12.0 0.00 0.00 0.00 19 1010.8
20260508175013 64 225 9.0 12.0 0.00 0.00 0.00 19 1011.0
20260508174506 64 225 4.0 11.0 0.00 0.00 0.00 19 1011.0
20260508173952 64 225 4.0 17.0 0.00 0.00 0.00 20 1011.1
20260508173443 63 315 7.0 17.0 0.00 0.00 0.00 19 1011.2
20260508173434 63 225 6.0 13.0 0.00 0.00 0.00 20 1011.2
20260508172422 63 180 7.0 15.0 0.00 0.00 0.00 20 1011.2
20260508171914 62 270 8.0 15.0 0.00 0.00 0.00 21 1011.3
20260508171402 62 270 8.0 16.0 0.00 0.00 0.00 21 1011.3
20260508170851 62 225 8.0 16.0 0.00 0.00 0.00 21 1011.4
20260508170341 62 180 5.0 14.0 0.00 0.00 0.00 21 1011.6
20260508165832 62 225 7.0 14.0 0.00 0.00 0.00 22 1011.5
20260508165324 62 180 8.0 14.0 0.00 0.00 0.00 22 1011.7
20260508165306 61 225 7.0 15.0 0.00 0.00 0.00 22 1012.1
20260508164907 62 270 4.0 15.0 0.00 0.00 0.00 22 1011.9
20260508163751 61 225 8.0 13.0 0.00 0.00 0.00 21 1012.3
20260508163241 61 248 7.0 15.0 0.00 0.00 0.00 22 1012.3
20260508162734 62 315 8.0 15.0 0.00 0.00 0.00 23 1012.1
20260508162221 61 180 6.0 15.0 0.00 0.00 0.00 23 1012.3
20260508161714 61 225 2.0 17.0 0.00 0.00 0.00 24 1012.3
20260508161200 61 225 9.0 17.0 0.00 0.00 0.00 24 1012.3
20260508161151 61 225 4.0 17.0 0.00 0.00 0.00 26 1012.4
20260508160144 61 225 9.0 17.0 0.00 0.00 0.00 23 1012.7
20260508155629 61 225 2.0 15.0 0.00 0.01 0.00 26 1012.5
20260508155120 60 180 4.0 15.0 0.00 0.01 0.00 25 1012.6
20260508155111 61 225 8.0 16.0 0.00 0.01 0.00 25 1012.7
20260508154059 60 90 5.0 16.0 0.00 0.01 0.00 27 1012.7
20260508154052 61 180 4.0 17.0 0.00 0.01 0.00 25 1012.6
20260508153047 60 180 4.0 16.0 0.00 0.02 0.00 30 1012.8
20260508153039 61 0 4.0 17.0 0.00 0.02 0.00 27 1012.8
20260508152519 61 135 7.0 16.0 0.00 0.04 0.00 29 1012.9
20260508152008 60 135 2.0 13.0 0.00 0.06 0.00 30 1013.0
20260508151001 59 45 2.0 13.0 0.00 0.07 0.00 30 1013.2
20260508150448 59 225 7.0 12.0 0.00 0.09 0.00 30 1013.1
20260508145938 59 270 2.0 15.0 0.00 0.11 0.00 31 1013.3
20260508145928 59 225 5.0 16.0 0.00 0.12 0.00 31 1013.3
20260508144918 58 315 7.0 16.0 0.00 0.12 0.00 32 1013.3
20260508144411 58 225 6.0 17.0 0.00 0.12 0.00 32 1013.4
20260508143857 58 225 8.0 18.0 0.00 0.12 0.00 31 1013.5
20260508143347 58 225 12.0 18.0 0.00 0.12 0.00 31 1013.4
20260508142837 58 180 4.0 17.0 0.00 0.12 0.00 31 1013.4
20260508142327 58 180 9.0 17.0 0.00 0.12 0.00 31 1013.8
20260508141820 57 315 2.0 14.0 0.00 0.12 0.00 32 1013.7
20260508141306 58 180 10.0 14.0 0.00 0.12 0.00 32 1013.9
20260508140757 58 270 8.0 14.0 0.00 0.12 0.00 33 1013.9
20260508140247 57 225 4.0 17.0 0.00 0.12 0.00 33 1013.9
20260508135737 56 270 9.0 17.0 0.00 0.12 0.00 33 1013.9
20260508135230 56 315 7.0 14.0 0.00 0.12 0.00 33 1013.9
20260508134715 57 270 6.0 13.0 0.00 0.12 0.00 35 1013.8
20260508134707 56 225 7.0 15.0 0.00 0.12 0.00 36 1014.1
20260508133656 55 270 4.0 17.0 0.00 0.12 0.00 34 1013.9
20260508133145 55 0 5.0 17.0 0.00 0.12 0.00 35 1013.7
20260508132639 55 225 8.0 15.0 0.00 0.12 0.00 35 1013.8
20260508132125 55 248 4.0 19.0 0.00 0.12 0.00 35 1013.7
20260508131615 55 293 4.0 19.0 0.00 0.12 0.00 35 1013.7
20260508131105 55 225 8.0 17.0 0.00 0.14 0.00 34 1013.6
20260508130554 56 0 5.0 11.0 0.00 0.15 0.00 37 1013.6
20260508125535 55 270 2.0 11.0 0.00 0.15 0.00 39 1013.6
20260508125516 54 315 4.0 13.0 0.00 0.15 0.00 41 1013.5
20260508125121 55 225 3.0 11.0 0.00 0.15 0.00 41 1013.4
20260508124004 54 315 6.0 14.0 0.00 0.15 0.00 41 1013.4
20260508123501 54 158 4.0 14.0 0.00 0.15 0.00 41 1013.5
20260508122943 54 315 2.0 10.0 0.00 0.15 0.00 42 1013.4
20260508122433 53 225 2.0 11.0 0.00 0.15 0.00 43 1013.4
20260508121923 53 45 2.0 11.0 0.00 0.15 0.00 43 1013.3
20260508121907 52 270 2.0 11.0 0.00 0.15 0.00 46 1013.0
20260508121513 53 225 2.0 8.0 0.00 0.15 0.00 45 1013.3
20260508120353 52 315 3.0 11.0 0.00 0.15 0.00 47 1013.0
20260508115843 52 225 2.0 7.0 0.00 0.15 0.00 50 1013.0
20260508115333 51 315 0.0 5.0 0.00 0.15 0.00 51 1012.8
20260508114823 51 270 3.0 8.0 0.00 0.15 0.00 52 1012.9
20260508114316 50 225 2.0 8.0 0.00 0.15 0.00 53 1012.8
20260508113802 49 90 1.0 5.0 0.00 0.15 0.00 56 1012.5
20260508113252 47 315 1.0 5.0 0.00 0.15 0.00 59 1012.6
20260508112742 46 315 1.0 5.0 0.00 0.15 0.00 59 1012.6
20260508112231 45 270 2.0 4.0 0.00 0.15 0.00 59 1012.6
20260508111724 45 135 1.0 7.0 0.00 0.15 0.00 59 1012.6
20260508111212 44 315 1.0 7.0 0.00 0.15 0.00 60 1012.7
20260508110701 44 135 2.0 5.0 0.00 0.15 0.00 59 1012.5
20260508110151 45 315 2.0 5.0 0.00 0.15 0.00 58 1012.4
20260508105641 45 315 2.0 5.0 0.00 0.15 0.00 57 1012.0
20260508105134 45 0 1.0 8.0 0.00 0.15 0.00 56 1012.1
20260508104620 45 225 3.0 8.0 0.00 0.15 0.00 55 1011.8
20260508104111 46 225 2.0 7.0 0.00 0.15 0.00 54 1011.7
20260508103600 46 68 1.0 10.0 0.00 0.15 0.00 53 1011.7
20260508103050 46 180 2.0 10.0 0.00 0.15 0.00 52 1011.6
20260508102543 46 270 7.0 10.0 0.00 0.15 0.00 52 1011.4
20260508102531 46 135 2.0 9.0 0.00 0.15 0.00 53 1011.3
20260508102011 47 248 4.0 10.0 0.00 0.15 0.00 53 1011.3
20260508101616 47 225 4.0 10.0 0.00 0.15 0.00 53 1011.3
20260508100459 47 270 2.0 10.0 0.00 0.15 0.00 53 1011.4
20260508095953 47 225 4.0 10.0 0.00 0.15 0.00 53 1011.2
20260508095940 47 270 2.0 11.0 0.00 0.15 0.00 53 1011.1
20260508095429 47 135 2.0 14.0 0.00 0.15 0.00 53 1011.0
20260508094419 47 225 4.0 14.0 0.00 0.15 0.00 54 1010.8
20260508093908 46 135 4.0 12.0 0.00 0.15 0.00 55 1010.7
20260508093902 46 23 3.0 12.0 0.00 0.15 0.00 55 1010.8
20260508092848 46 315 4.0 12.0 0.00 0.15 0.00 56 1010.7
20260508092338 46 135 4.0 9.0 0.00 0.15 0.00 56 1010.7
20260508092328 46 225 4.0 10.0 0.00 0.15 0.00 56 1010.7
20260508091819 46 180 3.0 15.0 0.00 0.15 0.00 56 1010.6
20260508090811 46 225 8.0 15.0 0.00 0.15 0.00 56 1010.4
20260508090258 47 225 2.0 10.0 0.00 0.15 0.00 55 1010.4
20260508085747 47 225 6.0 11.0 0.00 0.15 0.00 55 1010.4
20260508085241 47 270 4.0 11.0 0.00 0.15 0.00 56 1010.3
20260508085229 47 180 2.0 11.0 0.00 0.15 0.00 55 1010.3
20260508084233 47 90 3.0 11.0 0.00 0.15 0.00 55 1010.2
20260508083706 47 203 6.0 10.0 0.00 0.15 0.00 54 1010.1
20260508083238 47 135 3.0 11.0 0.00 0.17 0.00 54 1009.8
20260508083157 47 180 4.0 10.0 0.00 0.15 0.00 54 1010.0
20260508082647 47 180 4.0 11.0 0.00 0.17 0.00 54 1009.7
20260508082631 47 180 2.0 14.0 0.00 0.17 0.00 54 1009.6
20260508081116 47 135 6.0 14.0 0.00 0.17 0.00 54 1009.7
20260508080606 47 203 4.0 12.0 0.00 0.18 0.00 54 1009.7
20260508080100 47 135 4.0 11.0 0.00 0.21 0.00 55 1009.5
20260508080046 47 158 4.0 10.0 0.00 0.26 0.00 55 1009.6
20260508075039 47 158 4.0 15.0 0.00 0.30 0.00 55 1009.5
20260508074526 47 158 3.0 15.0 0.00 0.33 0.00 55 1009.4
20260508074517 47 180 6.0 15.0 0.00 0.33 0.00 55 1009.1
20260508073505 47 225 8.0 15.0 0.00 0.35 0.00 55 1009.1
20260508072955 47 135 5.0 15.0 0.00 0.37 0.00 55 1009.2
20260508072448 47 225 5.0 20.0 0.00 0.37 0.00 56 1009.1
20260508071934 47 180 7.0 20.0 0.00 0.37 0.00 56 1009.2
20260508071424 47 180 14.0 19.0 0.00 0.37 0.00 56 1009.3
20260508070914 47 203 6.0 15.0 0.00 0.37 0.00 56 1009.3
20260508070417 47 180 8.0 18.0 0.00 0.37 0.00 56 1009.2
20260508065857 47 225 7.0 18.0 0.00 0.37 0.00 57 1009.1
20260508065344 47 225 8.0 16.0 0.00 0.37 0.00 61 1009.1
20260508064834 46 180 6.0 15.0 0.00 0.39 0.00 62 1009.1
20260508064324 45 315 5.0 10.0 0.00 0.40 0.00 64 1009.2
20260508063826 45 180 5.0 9.0 0.00 0.40 0.00 64 1009.2
20260508063306 45 90 0.0 7.0 0.00 0.40 0.00 62 1009.3
20260508062753 46 135 1.0 7.0 0.00 0.40 0.00 61 1009.5
20260508062243 46 270 2.0 7.0 0.00 0.40 0.00 61 1009.4
20260508061733 46 225 4.0 7.0 0.00 0.40 0.00 61 1009.3
20260508061223 46 270 2.0 8.0 0.00 0.40 0.00 62 1009.4
20260508060716 45 180 2.0 10.0 0.00 0.40 0.00 65 1009.5
20260508060203 45 270 3.0 10.0 0.00 0.40 0.00 66 1009.7
20260508055652 45 180 3.0 8.0 0.00 0.40 0.00 68 1009.8
20260508055142 44 315 2.0 6.0 0.00 0.40 0.00 69 1010.1
20260508054632 44 225 4.0 5.0 0.00 0.40 0.00 69 1010.1
20260508054126 45 248 2.0 6.0 0.00 0.40 0.00 67 1010.2
20260508053612 45 293 2.0 7.0 0.00 0.40 0.00 67 1010.0
20260508053102 45 135 2.0 8.0 0.00 0.40 0.00 67 1009.9
20260508052552 45 315 3.0 8.0 0.00 0.40 0.00 67 1010.1
20260508052041 45 270 3.0 8.0 0.00 0.40 0.00 68 1010.1
20260508051535 45 0 4.0 8.0 0.00 0.40 0.00 67 1010.3
20260508051045 45 225 1.0 6.0 0.00 0.40 0.00 67 1010.3
20260508050512 45 270 2.0 7.0 0.00 0.40 0.00 67 1010.5
20260508050501 45 315 2.0 7.0 0.00 0.40 0.00 67 1010.5
20260508045451 45 315 2.0 6.0 0.00 0.40 0.00 67 1010.5
20260508044943 45 270 1.0 6.0 0.00 0.40 0.00 68 1010.3
20260508044430 45 315 2.0 6.0 0.00 0.40 0.00 68 1010.3
20260508043921 45 45 2.0 8.0 0.00 0.40 0.00 69 1010.2
20260508043411 45 315 2.0 9.0 0.00 0.40 0.00 70 1010.2
20260508042901 44 315 4.0 9.0 0.00 0.40 0.00 72 1010.2
20260508042353 44 270 4.0 9.0 0.00 0.40 0.00 73 1010.1
20260508041840 44 315 4.0 6.0 0.00 0.40 0.00 73 1010.1
20260508041831 44 315 3.0 4.0 0.00 0.40 0.00 72 1009.9
20260508040819 44 0 2.0 5.0 0.00 0.40 0.00 71 1009.7
20260508040309 44 293 2.0 5.0 0.00 0.40 0.00 70 1009.8
20260508035803 45 315 2.0 5.0 0.00 0.40 0.00 69 1009.9
20260508035750 45 0 2.0 5.0 0.00 0.40 0.00 69 1009.8
20260508034739 45 315 4.0 5.0 0.00 0.40 0.00 69 1009.8
20260508034229 45 270 2.0 4.0 0.00 0.40 0.00 69 1009.7
20260508033718 45 315 2.0 4.0 0.00 0.40 0.00 69 1009.6
20260508033713 45 270 2.0 4.0 0.00 0.40 0.00 69 1009.5
20260508032659 45 270 1.0 5.0 0.00 0.40 0.00 69 1009.4
20260508032149 45 315 2.0 5.0 0.00 0.40 0.00 69 1009.4
20260508031638 46 270 2.0 6.0 0.00 0.40 0.00 69 1009.5
20260508031128 46 315 2.0 6.0 0.00 0.40 0.00 70 1009.5
20260508030621 46 0 2.0 4.0 0.00 0.40 0.00 70 1009.6
20260508030108 45 0 2.0 7.0 0.00 0.40 0.00 70 1009.7
20260508025558 45 293 3.0 7.0 0.00 0.40 0.40 70 1009.5
20260508025047 45 270 2.0 5.0 0.00 0.40 0.40 71 1009.5
20260508024537 45 293 4.0 6.0 0.00 0.40 0.40 70 1009.5
20260508024030 46 315 3.0 6.0 0.00 0.40 0.40 70 1009.4
20260508023517 46 315 2.0 4.0 0.00 0.40 0.40 69 1009.3
20260508023007 46 0 0.0 4.0 0.00 0.40 0.40 68 1009.0
20260508022457 46 270 2.0 5.0 0.00 0.40 0.40 67 1009.2
20260508022448 47 225 2.0 6.0 0.00 0.40 0.40 67 1009.4
20260508021440 47 293 1.0 6.0 0.00 0.40 0.40 66 1009.3
20260508020927 47 315 3.0 6.0 0.00 0.40 0.40 65 1009.5
20260508020918 47 315 1.0 4.0 0.00 0.40 0.40 65 1009.3
20260508015907 48 293 2.0 4.0 0.00 0.40 0.40 65 1009.5
20260508015355 48 180 1.0 4.0 0.00 0.40 0.40 65 1009.3
20260508014849 48 180 2.0 4.0 0.00 0.40 0.40 65 1009.7
20260508014335 48 315 1.0 4.0 0.00 0.40 0.40 65 1009.6
20260508013826 49 0 2.0 4.0 0.00 0.40 0.40 64 1009.5
20260508013820 49 338 0.0 3.0 0.00 0.40 0.40 63 1009.4
20260508012834 49 315 1.0 4.0 0.00 0.40 0.40 63 1009.5
20260508012258 49 180 2.0 4.0 0.00 0.40 0.40 63 1009.5
20260508012245 49 135 0.0 7.0 0.00 0.40 0.40 63 1009.4
20260508011235 49 225 3.0 7.0 0.00 0.40 0.40 63 1009.4
20260508010725 49 270 2.0 4.0 0.00 0.40 0.40 63 1009.5
20260508010716 50 315 2.0 4.0 0.00 0.40 0.40 62 1009.5
20260508005707 50 0 2.0 4.0 0.00 0.40 0.40 60 1009.4
20260508005154 50 270 2.0 4.0 0.00 0.40 0.40 60 1009.5
20260508004644 50 0 2.0 4.0 0.00 0.40 0.40 60 1009.2
20260508004134 51 338 1.0 4.0 0.00 0.40 0.40 60 1009.1
20260508003624 51 315 2.0 4.0 0.00 0.40 0.40 60 1009.1
20260508003117 51 270 1.0 4.0 0.00 0.40 0.40 59 1009.2
20260508002604 52 180 2.0 4.0 0.00 0.40 0.40 59 1009.2
20260508002053 52 0 1.0 4.0 0.00 0.40 0.40 57 1009.1
20260508002047 52 315 2.0 4.0 0.00 0.40 0.40 57 1009.1
20260508001033 52 270 0.0 4.0 0.00 0.40 0.40 56 1008.9
20260508001026 53 315 2.0 4.0 0.00 0.40 0.40 56 1008.9
20260508000515 53 270 1.0 5.0 0.00 0.40 0.40 56 1009.0
20260507235502 53 225 1.0 5.0 0.00 0.40 0.40 56 1009.1
20260507234953 53 225 4.0 5.0 0.00 0.40 0.40 56 1009.0
20260507234443 53 248 0.0 4.0 0.00 0.40 0.40 56 1009.0
20260507233935 53 23 2.0 6.0 0.00 0.40 0.40 56 1009.0
20260507233423 54 225 2.0 6.0 0.00 0.40 0.40 55 1008.9
20260507232912 54 315 1.0 6.0 0.00 0.40 0.40 56 1009.0
20260507232401 53 315 3.0 8.0 0.00 0.40 0.40 59 1009.0
20260507231852 53 225 2.0 8.0 0.00 0.40 0.40 60 1008.8
20260507231345 53 270 4.0 8.0 0.00 0.40 0.40 60 1009.0
20260507230831 53 225 2.0 4.0 0.00 0.40 0.40 60 1008.8
20260507230822 53 315 1.0 4.0 0.00 0.40 0.40 61 1008.9
20260507225811 53 270 1.0 4.0 0.00 0.40 0.40 62 1008.7